Location: Recife
(8.0585°S, 34.8848°W)
Time: 06:39:50
(UTC-03:00)

Vanguard 1 - Pass Details

Date: 21 April 2026
Orbit: 654 x 3817 km, 34.2° (Epoch: 13 May)

Event Time Altitude Azimuth Distance (km) Brightness Sun altitude
Rises 13:41:00 0° 205° (SSW) 3,471 12.9 49.2°
Reaches altitude 10° 13:44:56 10° 176° (S) 2,930 12.4 48.4°
Maximum altitude 13:48:14 13° 148° (SSE) 3,053 12.4 47.7°
Drops below altitude 10° 13:52:16 10° 122° (ESE) 3,785 12.8 46.8°
Sets 13:59:04 0° 98° (E) 5,585 13.5 45.3°
